Content
SEND FEEDBACK

Daily
Averages
Monthly
Summary
Australia

SPREYTON, TASMANIA


Home > Oceania > Australia > Tasmania
Elevation: 150 feet     Latitude: 41 10S     Longitude: 146 22E

WEATHER
 
SELECT A DAY
Number of Records: 181,013;   Date Range: 10/22/03 - 7/20/14
 
SHARE

PRINT THIS DATA

[ ← Previous Day ]
WEATHER ALMANAC - JANUARY 31, 2013
[ Next Day → ]
[ °C ]   °F
Weather ElementAverageHighLow
Temperature59.1 °F62.6 °F (5:30 pm)53.6 °F (9:00 pm)
Dewpoint54.9 °F57.2 °F (4:00 am)50 °F (11:30 pm)
Humidity86.5 %94 % (4:00 am)72 % (6:00 pm)
Barometer29.77 in29.86 in (12:30 am)29.68 in (7:00 pm)
Wind Speed11.7 mph19.6 mph (2:30 am)
Weather ElementAverage
Visibility5.5 mi
Wind DirectionNNW (321.2 °)

Weather ElementTotal
Precipitation---
Heating Degree Days6.9 (Base 65)
Growing Degree Days8.1 (Base 50)
Averaged from 34 records on January 31, 2013
WEATHER CONDITIONS BREAKOUT
WIND DIRECTION BREAKOUT
WEATHER BY HOUR - JANUARY 31, 2013
[ °C ]   °F
Local TimeTemperatureDewpointHumidityBarometerVisibilityWind DirectionWind SpeedGust SpeedPrecipitationEventsConditions
12:30 AM60.8 °F55.4 °F82 %29.86 in6.2 miNNW (340°)15.0 mphOvercast
2:00 AM60.8 °F55.4 °F82 %29.83 in6.2 miNorth (350°)18.4 mphOvercast
2:30 AM60.8 °F55.4 °F82 %29.83 in6.2 miNorth (350°)19.6 mphOvercast
3:00 AM60.8 °F55.4 °F82 %29.83 in6.2 miNorth (350°)18.4 mphOvercast
4:00 AM59.0 °F57.2 °F94 %29.80 in3.7 miNorth (350°)16.1 mphRainLight Rain Showers
4:30 AM59.0 °F57.2 °F94 %29.80 in3.7 miNorth (350°)17.3 mphRainLight Rain Showers
5:00 AM59.0 °F57.2 °F94 %29.77 in3.7 miNorth (350°)16.1 mphRainLight Rain
6:00 AM59.0 °F55.4 °F88 %29.77 in3.1 miNorth (350°)19.6 mphHeavy Drizzle
6:30 AM59.0 °F57.2 °F94 %29.77 in5.6 miNorth (350°)17.3 mphDrizzle
7:30 AM59.0 °F57.2 °F94 %29.80 in3.1 miNorth (350°)18.4 mphDrizzle
8:00 AM59.0 °F57.2 °F94 %29.80 inNW (320°)13.8 mphHeavy Drizzle
8:30 AM59.0 °F55.4 °F88 %29.80 in6.2 miNW (310°)11.5 mphOvercast
9:00 AM57.2 °F53.6 °F88 %29.83 in4.3 miNNW (340°)11.5 mphOvercast
10:30 AM57.2 °F55.4 °F94 %29.83 in3.7 miNorth (350°)13.8 mphRainLight Rain
11:30 AM57.2 °F53.6 °F88 %29.80 in6.2 miNorth (360°)10.4 mphRainLight Rain
12:00 PM57.2 °F53.6 °F88 %29.80 in6.2 miNorth (360°)8.1 mphDrizzle
12:30 PM57.2 °F55.4 °F94 %29.80 in6.2 miNorth (350°)9.2 mphOvercast
1:00 PM57.2 °F55.4 °F94 %29.80 in5.0 miNorth (360°)6.9 mphRainLight Rain Showers
1:30 PM57.2 °F53.6 °F88 %29.77 in6.2 miNorth (350°)6.9 mphRainLight Rain Showers
2:00 PM59.0 °F55.4 °F88 %29.77 in6.2 miNorth (350°)9.2 mphRainLight Rain Showers
2:30 PM59.0 °F55.4 °F88 %29.77 in6.2 miNorth (360°)11.5 mphRainLight Rain Showers
3:30 PM60.8 °F55.4 °F82 %29.74 in6.2 miNorth (350°)10.4 mphRainLight Rain Showers
4:00 PM60.8 °F55.4 °F82 %29.74 in6.2 miNorth (360°)11.5 mphOvercast
4:30 PM60.8 °F53.6 °F77 %29.71 in6.2 miNorth (360°)10.4 mphOvercast
5:00 PM60.8 °F53.6 °F77 %29.71 in6.2 miNorth (350°)11.5 mphOvercast
5:30 PM62.6 °F55.4 °F77 %29.71 in6.2 miNorth (360°)9.2 mphOvercast
6:00 PM62.6 °F53.6 °F72 %29.71 in6.2 miNNW (330°)9.2 mphOvercast
6:30 PM60.8 °F53.6 °F77 %29.71 in6.2 miNNW (340°)9.2 mphOvercast
7:00 PM62.6 °F55.4 °F77 %29.68 in6.2 miNW (320°)4.6 mphRainLight Rain Showers
7:30 PM60.8 °F53.6 °F77 %29.68 in6.2 miWest (270°)5.8 mphOvercast
8:00 PM59.0 °F55.4 °F88 %29.71 in5.6 miWSW (240°)6.9 mphRainRain
8:30 PM55.4 °F53.6 °F94 %29.71 in6.2 miSouth (170°)11.5 mphRainRain
9:00 PM53.6 °F51.8 °F94 %29.74 in4.3 miSouth (170°)8.1 mphRainHeavy Rain
11:30 PM53.6 °F50.0 °F88 %29.80 in6.2 miCalmRainLight Rain
Hourly data recorded from YDPO, located miles away from Spreyton, Tasmania







STORIES FROM OUR PARTNERS